Weather History for Fremont, MI

Change the Weather History Date:

Saturday, January 12, 2013

  Actual Average (KMKG) Record (KMKG)
Temperature  
Mean Temperature 42 °F 26 °F  
Max Temperature 51 °F 31 °F 59 °F (2005)
Min Temperature 33 °F 20 °F -21 °F (1912)
Degree Days  
Heating Degree Days 22 40  
Month to date heating degree days 467  
Since 1 July heating degree days 2913  
Cooling Degree Days 0 0  
Month to date cooling degree days 0  
Year to date cooling degree days 0  
Moisture  
Dew Point 39 °F    
Average Humidity 79    
Maximum Humidity 98    
Minimum Humidity 51    
Precipitation  
Precipitation 0.00 in 0.06 in 1.56 in (1960)
Month to date precipitation 0.85  
Year to date precipitation 0.85  
Snow  
Snow 0.00 in 0.90 in 8.00 in (1918)
Month to date snowfall 10.8  
Since 1 July snowfall 45.9  
Snow Depth -    
Sea Level Pressure  
Sea Level Pressure 29.82 in    
Wind  
Wind Speed 11 mph (SSW)    
Max Wind Speed 22 mph    
Max Gust Speed 32 mph    
Visibility 10 miles    
Events Rain    
T = Trace of Precipitation, MM = Missing Value Source: NWS Daily Summary

Daily Weather History Graph

Daily Weather History Graph

Search for Another Location

Airport:

Trip Planner

Search our weather history database for the weather conditions in past years. The results will help you decide how hot, cold, wet, or windy it might be!

Date:

Astronomy

Jan. 12, 2013 Rise Set
Actual Time 8:14 AM EST 5:30 PM EST
Civil Twilight 7:43 AM EST 6:02 PM EST
Nautical Twilight 7:07 AM EST 6:37 PM EST
Astronomical Twilight 6:33 AM EST 7:11 PM EST
Moon 8:30 AM EST (1/12) 7:02 PM EST (1/12)
Length of Visible Light 10h 19m
Length of Day
9h 15m
New Moon, 1% of the Moon is Illuminated
Jan 12
New Moon
Jan 18
First Quarter
Jan 26
Full
Feb 3
Last Quarter
Feb 10
New

Hourly Weather History & Observations

Time (EST) Temp. Windchill Dew Point Humidity Pressure Visibility Wind Dir Wind Speed Gust Speed Precip Events Conditions
12:15 AM 45.5 °F 42.5 °F 45.0 °F 98% 29.72 in 7.0 mi SE 5.8 mph - N/A   Overcast
12:35 AM 45.5 °F 42.5 °F 45.0 °F 98% 29.73 in 7.0 mi SSE 5.8 mph - N/A   Overcast
12:55 AM 46.2 °F 42.2 °F 45.5 °F 97% 29.72 in 10.0 mi SE 8.1 mph - N/A   Mostly Cloudy
1:15 AM 46.8 °F - 45.9 °F 97% 29.72 in 10.0 mi SSE 3.5 mph - N/A   Scattered Clouds
1:35 AM 46.8 °F - 45.7 °F 96% 29.72 in 10.0 mi SSE 4.6 mph - N/A   Scattered Clouds
1:55 AM 48.0 °F - 46.8 °F 95% 29.73 in 10.0 mi South 11.5 mph - N/A   Mostly Cloudy
2:15 AM 50.4 °F - 47.5 °F 90% 29.73 in 10.0 mi South 15.0 mph 23.0 mph N/A   Scattered Clouds
2:35 AM 50.5 °F - 47.5 °F 89% 29.73 in 10.0 mi South 17.3 mph 21.9 mph N/A   Scattered Clouds
2:55 AM 50.9 °F - 47.5 °F 88% 29.74 in 10.0 mi South 18.4 mph 29.9 mph N/A   Mostly Cloudy
3:15 AM 50.9 °F - 47.5 °F 88% 29.73 in 10.0 mi South 17.3 mph 25.3 mph N/A   Scattered Clouds
3:35 AM 50.9 °F - 47.3 °F 87% 29.73 in 10.0 mi South 17.3 mph 32.2 mph N/A   Scattered Clouds
3:55 AM 50.9 °F - 46.9 °F 86% 29.72 in 10.0 mi South 15.0 mph 31.1 mph N/A   Scattered Clouds
4:35 AM 50.7 °F - 46.6 °F 86% 29.72 in 10.0 mi South 17.3 mph 27.6 mph N/A   Scattered Clouds
4:55 AM 50.0 °F - 46.4 °F 87% 29.71 in 10.0 mi South 15.0 mph 20.7 mph N/A   Scattered Clouds
5:15 AM 50.0 °F - 46.4 °F 87% 29.71 in 10.0 mi South 15.0 mph 25.3 mph N/A   Scattered Clouds
5:35 AM 49.6 °F - 45.9 °F 87% 29.71 in 10.0 mi South 16.1 mph 23.0 mph N/A   Scattered Clouds
5:55 AM 49.1 °F - 45.9 °F 89% 29.71 in 10.0 mi South 11.5 mph - N/A   Clear
6:15 AM 49.1 °F - 45.7 °F 88% 29.73 in 10.0 mi South 16.1 mph 24.2 mph N/A   Clear
6:35 AM 48.9 °F - 45.5 °F 88% 29.73 in 10.0 mi South 13.8 mph 19.6 mph N/A   Clear
6:55 AM 47.8 °F - 45.1 °F 90% 29.72 in 10.0 mi South 15.0 mph 20.7 mph N/A   Clear
7:15 AM 48.2 °F - 45.5 °F 90% 29.73 in 10.0 mi South 11.5 mph - N/A   Clear
7:35 AM 48.2 °F - 45.5 °F 90% 29.73 in 10.0 mi South 13.8 mph - N/A   Clear
7:55 AM 48.2 °F - 45.5 °F 90% 29.74 in 10.0 mi South 15.0 mph 18.4 mph N/A   Clear
8:15 AM 48.7 °F - 45.5 °F 89% 29.74 in 10.0 mi South 13.8 mph 17.3 mph N/A   Clear
8:35 AM 49.1 °F - 45.7 °F 88% 29.75 in 10.0 mi South 18.4 mph 24.2 mph N/A   Clear
8:56 AM 49.3 °F - 45.7 °F 87% 29.76 in 10.0 mi South 13.8 mph 21.9 mph N/A   Clear
9:15 AM 50.0 °F - 45.5 °F 85% 29.77 in 10.0 mi South 15.0 mph 23.0 mph N/A   Clear
9:35 AM 50.0 °F - 45.5 °F 85% 29.78 in 10.0 mi South 13.8 mph - N/A   Clear
9:55 AM 50.4 °F - 45.5 °F 83% 29.79 in 10.0 mi SSW 18.4 mph 25.3 mph N/A   Clear
10:15 AM 51.3 °F - 45.7 °F 81% 29.79 in 10.0 mi SSW 17.3 mph 26.5 mph N/A   Clear
10:35 AM 51.3 °F - 45.1 °F 80% 29.80 in 10.0 mi SSW 21.9 mph 27.6 mph N/A   Clear
10:55 AM 50.9 °F - 44.8 °F 80% 29.81 in 10.0 mi SSW 20.7 mph 28.8 mph N/A   Clear
11:15 AM 50.9 °F - 44.6 °F 79% 29.82 in 10.0 mi SSW 19.6 mph 26.5 mph N/A   Clear
11:35 AM 51.1 °F - 44.6 °F 78% 29.82 in 10.0 mi SSW 16.1 mph 25.3 mph N/A   Clear
11:55 AM 50.9 °F - 43.9 °F 77% 29.82 in 10.0 mi SSW 19.6 mph 28.8 mph N/A   Clear
12:15 PM 50.9 °F - 41.9 °F 71% 29.82 in 10.0 mi SSW 18.4 mph 27.6 mph N/A   Clear
12:55 PM 49.8 °F - 38.1 °F 64% 29.83 in 10.0 mi SSW 20.7 mph 29.9 mph N/A   Clear
1:15 PM 49.1 °F - 36.7 °F 62% 29.85 in 10.0 mi SSW 17.3 mph 25.3 mph N/A   Clear
1:35 PM 48.2 °F - 36.3 °F 63% 29.84 in 10.0 mi SSW 15.0 mph 24.2 mph N/A   Clear
1:55 PM 48.6 °F - 33.4 °F 56% 29.84 in 10.0 mi SSW 17.3 mph 21.9 mph N/A   Clear
2:15 PM 47.7 °F - 32.4 °F 55% 29.86 in 10.0 mi SW 12.7 mph 20.7 mph N/A   Clear
2:35 PM 46.8 °F - 30.7 °F 54% 29.87 in 10.0 mi SW 10.4 mph 20.7 mph N/A   Clear
2:56 PM 46.4 °F 40.7 °F 29.1 °F 51% 29.87 in 10.0 mi SW 12.7 mph 18.4 mph N/A   Clear
3:15 PM 45.5 °F 39.6 °F 29.7 °F 54% 29.88 in 10.0 mi SW 12.7 mph 17.3 mph N/A   Clear
3:35 PM 44.6 °F 38.4 °F 29.5 °F 55% 29.90 in 10.0 mi SSW 12.7 mph 19.6 mph N/A   Clear
3:55 PM 43.2 °F 37.4 °F 30.2 °F 60% 29.90 in 10.0 mi SW 10.4 mph - N/A   Clear
4:15 PM 41.9 °F 36.9 °F 29.8 °F 62% 29.90 in 10.0 mi SSW 8.1 mph - N/A   Clear
4:35 PM 41.0 °F 35.2 °F 30.6 °F 66% 29.90 in 10.0 mi SSW 9.2 mph - N/A   Clear
4:55 PM 40.3 °F 33.9 °F 29.3 °F 65% 29.91 in 10.0 mi SSW 10.4 mph - N/A   Clear
5:15 PM 39.4 °F 33.8 °F 30.4 °F 70% 29.92 in 10.0 mi SSW 8.1 mph - N/A   Clear
5:35 PM 39.2 °F 33.6 °F 31.6 °F 74% 29.93 in 10.0 mi SSW 8.1 mph - N/A   Scattered Clouds
5:55 PM 39.2 °F 34.2 °F 31.8 °F 75% 29.95 in 10.0 mi SSW 6.9 mph - N/A   Overcast
6:15 PM 39.2 °F 33.6 °F 31.5 °F 74% 29.94 in 10.0 mi SSW 8.1 mph - N/A   Mostly Cloudy
6:35 PM 38.8 °F 33.8 °F 31.6 °F 75% 29.93 in 10.0 mi SW 6.9 mph - N/A   Mostly Cloudy
6:55 PM 38.7 °F 32.9 °F 32.0 °F 77% 29.93 in 10.0 mi WSW 8.1 mph - N/A   Mostly Cloudy
7:15 PM 38.3 °F 33.2 °F 32.0 °F 78% 29.92 in 10.0 mi WSW 6.9 mph - N/A   Scattered Clouds
7:35 PM 37.6 °F 33.1 °F 30.9 °F 77% 29.92 in 10.0 mi SW 5.8 mph - N/A   Clear
7:55 PM 37.4 °F 33.8 °F 30.2 °F 75% 29.92 in 10.0 mi SSW 4.6 mph - N/A   Scattered Clouds
8:15 PM 36.5 °F 33.9 °F 30.0 °F 77% 29.91 in 10.0 mi SW 3.5 mph - N/A   Scattered Clouds
8:34 PM 36.7 °F - 30.0 °F 77% 29.91 in 10.0 mi Calm Calm - N/A   Scattered Clouds
8:55 PM 36.5 °F - 30.4 °F 78% 29.91 in 10.0 mi Calm Calm - N/A   Mostly Cloudy
9:15 PM 36.5 °F - 30.2 °F 78% 29.91 in 10.0 mi Calm Calm - N/A   Overcast
9:35 PM 36.5 °F 31.8 °F 30.7 °F 80% 29.91 in 10.0 mi West 5.8 mph - N/A   Drizzle
9:55 PM 35.8 °F 28.3 °F 30.7 °F 82% 29.92 in 10.0 mi West 10.4 mph - N/A Rain Light Rain
10:15 PM 35.2 °F 28.8 °F 30.2 °F 82% 29.92 in 10.0 mi WNW 8.1 mph - N/A Rain Light Rain
10:35 PM 35.2 °F 31.2 °F 30.0 °F 81% 29.93 in 10.0 mi West 4.6 mph - N/A   Overcast
10:55 PM 35.1 °F 28.6 °F 30.7 °F 84% 29.91 in 10.0 mi WNW 8.1 mph - N/A   Overcast
11:35 PM 34.3 °F 28.4 °F 31.5 °F 89% 29.91 in 10.0 mi NW 6.9 mph - N/A   Light Drizzle
11:55 PM 33.8 °F 27.7 °F 30.9 °F 89% 29.90 in 10.0 mi NW 6.9 mph - N/A   Drizzle